QPF
0.04 0.04 0.03 0.02 0.02 0.01 0.02 0.03 0.04 0.05 0.05 0.04 0.03 0.03 0.04 0.03 0.04 0.05 0.06 0.04 0.03 0.03 0.04 0.04 0.10 0.12 0.10 0.06 0.06 0.08 0.12 0.14 0.13 0.11 0.09 0.08 0.08 0.08
0.04 0.05 0.03 0.02 0.01 0.01 0.01 0.01 0.02 0.04 0.05 0.03 0.04 0.04 0.04 0.04 0.06 0.04 0.05 0.06 0.03 0.03 0.05 0.05 0.08 0.10 0.10 0.07 0.06 0.06 0.06 0.08 0.10 0.09 0.08 0.06 0.05 0.06
0.02 0.04 0.05 0.02 0.01 0.01 0.01 0.01 0.02 0.02 0.03 0.02 0.03 0.03 0.04 0.05 0.05 0.04 0.03 0.04 0.04 0.04 0.04 0.04 0.06 0.08 0.09 0.08 0.07 0.05 0.04 0.03 0.04 0.05 0.05 0.05 0.04 0.04
0.01 0.02 0.05 0.04 0.02 0.01 0.01 0.01 0.01 0.02 0.02 0.02 0.02 0.02 0.02 0.04 0.05 0.05 0.03 0.02 0.03 0.02 0.01 0.02 0.03 0.06 0.08 0.08 0.08 0.07 0.06 0.04 0.03 0.03 0.03 0.03 0.04 0.04
0.01 0.02 0.04 0.06 0.03 0.01 0.01 0.01 0.02 0.02 0.02 0.03 0.02 0.01 0.02 0.02 0.03 0.04 0.04 0.02 0.02 0.02 0.02 0.02 0.03 0.04 0.07 0.06 0.05 0.04 0.05 0.05 0.04 0.04 0.03 0.03 0.04 0.03
0.00 0.01 0.02 0.04 0.06 0.02 0.01 0.01 0.01 0.01 0.02 0.04 0.04 0.02 0.01 0.02 0.03 0.04 0.04 0.02 0.01 0.02 0.02 0.03 0.04 0.05 0.07 0.08 0.05 0.03 0.03 0.04 0.05 0.04 0.04 0.03 0.03 0.03
0.00 0.00 0.01 0.01 0.04 0.05 0.02 0.01 0.01 0.01 0.02 0.03 0.04 0.03 0.02 0.02 0.02 0.03 0.02 0.02 0.02 0.02 0.03 0.02 0.02 0.02 0.03 0.07 0.06 0.03 0.02 0.02 0.02 0.03 0.03 0.03 0.03 0.02
0.01 0.00 0.00 0.01 0.01 0.03 0.04 0.02 0.01 0.02 0.02 0.03 0.04 0.03 0.02 0.02 0.02 0.01 0.01 0.02 0.02 0.02 0.03 0.03 0.02 0.03 0.03 0.03 0.05 0.04 0.02 0.01 0.02 0.02 0.03 0.02 0.02 0.02
0.01 0.01 0.00 0.00 0.01 0.01 0.02 0.02 0.02 0.01 0.01 0.02 0.02 0.02 0.01 0.01 0.01 0.01 0.02 0.02 0.02 0.02 0.03 0.02 0.02 0.03 0.04 0.05 0.05 0.04 0.04 0.02 0.02 0.02 0.02 0.02 0.02 0.02
0.01 0.01 0.01 0.00 0.00 0.00 0.01 0.02 0.02 0.01 0.01 0.01 0.01 0.01 0.01 0.02 0.02 0.02 0.03 0.02 0.02 0.02 0.03 0.03 0.02 0.03 0.03 0.04 0.05 0.05 0.05 0.04 0.03 0.03 0.03 0.02 0.02 0.02
0.00 0.00 0.00 0.01 0.00 0.00 0.01 0.01 0.01 0.01 0.01 0.01 0.01 0.01 0.01 0.02 0.02 0.03 0.02 0.03 0.03 0.03 0.04 0.03 0.03 0.03 0.04 0.04 0.04 0.04 0.04 0.05 0.05 0.05 0.04 0.04 0.04 0.04
0.01 0.00 0.00 0.00 0.01 0.00 0.01 0.01 0.01 0.01 0.01 0.02 0.02 0.01 0.01 0.01 0.02 0.02 0.03 0.04 0.04 0.03 0.04 0.04 0.03 0.03 0.05 0.05 0.05 0.04 0.05 0.05 0.05 0.05 0.05 0.05 0.05 0.05
0.01 0.01 0.00 0.00 0.01 0.01 0.01 0.01 0.01 0.01 0.01 0.02 0.03 0.02 0.01 0.01 0.02 0.02 0.03 0.04 0.04 0.04 0.04 0.05 0.05 0.04 0.04 0.03 0.04 0.04 0.05 0.05 0.05 0.04 0.04 0.04 0.03 0.03
0.01 0.01 0.01 0.00 0.01 0.02 0.01 0.01 0.01 0.01 0.02 0.03 0.04 0.04 0.02 0.01 0.02 0.02 0.02 0.03 0.04 0.05 0.05 0.06 0.06 0.06 0.05 0.04 0.03 0.02 0.02 0.03 0.04 0.04 0.04 0.04 0.04 0.03
0.01 0.01 0.01 0.01 0.01 0.02 0.01 0.01 0.01 0.01 0.01 0.03 0.03 0.04 0.04 0.02 0.02 0.02 0.02 0.03 0.04 0.04 0.04 0.04 0.05 0.06 0.06 0.05 0.04 0.04 0.03 0.02 0.02 0.02 0.02 0.02 0.02 0.03
0.01 0.01 0.01 0.00 0.00 0.01 0.01 0.01 0.01 0.01 0.01 0.01 0.01 0.02 0.03 0.03 0.02 0.02 0.02 0.02 0.03 0.03 0.03 0.04 0.05 0.06 0.08 0.06 0.04 0.04 0.04 0.03 0.02 0.02 0.02 0.01 0.01 0.01
0.03 0.02 0.01 0.01 0.00 0.00 0.00 0.00 0.01 0.01 0.01 0.01 0.01 0.01 0.01 0.01 0.02 0.02 0.02 0.01 0.01 0.02 0.02 0.02 0.03 0.05 0.07 0.07 0.06 0.05 0.05 0.04 0.04 0.03 0.03 0.03 0.02 0.01
0.03 0.03 0.02 0.01 0.01 0.00 0.00 0.00 0.00 0.01 0.01 0.01 0.01 0.01 0.01 0.01 0.01 0.01 0.01 0.01 0.01 0.00 0.00 0.01 0.01 0.03 0.05 0.06 0.06 0.07 0.07 0.05 0.04 0.04 0.04 0.04 0.03 0.02
0.02 0.02 0.01 0.01 0.01 0.00 0.00 0.01 0.00 0.00 0.00 0.01 0.01 0.01 0.01 0.01 0.01 0.01 0.01 0.01 0.00 0.00 0.00 0.00 0.01 0.02 0.03 0.04 0.04 0.03 0.04 0.05 0.04 0.04 0.05 0.05 0.05 0.06
0.03 0.02 0.01 0.01 0.01 0.01 0.00 0.00 0.01 0.00 0.00 0.00 0.01 0.01 0.00 0.00 0.01 0.01 0.01 0.01 0.01 0.00 0.00 0.00 0.00 0.01 0.03 0.03 0.02 0.02 0.02 0.02 0.02 0.02 0.03 0.03 0.04 0.05
0.04 0.03 0.02 0.01 0.01 0.01 0.01 0.01 0.00 0.00 0.00 0.00 0.00 0.01 0.01 0.00 0.01 0.01 0.01 0.00 0.00 0.00 0.00 0.00 0.00 0.00 0.01 0.02 0.01 0.01 0.01 0.01 0.01 0.01 0.01 0.02 0.02 0.02
0.04 0.03 0.02 0.01 0.01 0.00 0.01 0.00 0.00 0.00 0.00 0.01 0.01 0.00 0.01 0.01 0.01 0.00 0.00 0.00 0.00 0.00 0.01 0.01 0.00 0.00 0.00 0.00 0.01 0.00 0.00 0.00 0.00 0.01 0.01 0.01 0.01 0.01
0.06 0.04 0.03 0.02 0.01 0.00 0.00 0.00 0.00 0.00 0.00 0.01 0.01 0.01 0.01 0.01 0.01 0.00 0.00 0.00 0.00 0.00 0.00 0.00 0.00 0.00 0.00 0.00 0.00 0.00 0.00 0.00 0.00 0.00 0.00 0.00 0.01 0.01
MSLP
1010.99 1010.86 1010.78 1010.76 1010.78 1010.82 1010.88 1010.93 1010.95 1010.94 1010.89 1010.81 1010.72 1010.64 1010.58 1010.56 1010.61 1010.73 1010.92 1011.18 1011.50 1011.86 1012.23 1012.61 1012.96 1013.28 1013.57 1013.82 1014.03 1014.21 1014.39 1014.56 1014.74 1014.92 1015.12 1015.33 1015.54 1015.75
1010.87 1010.72 1010.62 1010.58 1010.59 1010.63 1010.70 1010.78 1010.84 1010.88 1010.88 1010.84 1010.79 1010.72 1010.66 1010.64 1010.66 1010.75 1010.92 1011.16 1011.46 1011.80 1012.18 1012.55 1012.91 1013.24 1013.52 1013.76 1013.96 1014.13 1014.28 1014.41 1014.55 1014.69 1014.85 1015.01 1015.18 1015.34
1010.76 1010.62 1010.51 1010.46 1010.46 1010.50 1010.59 1010.69 1010.79 1010.88 1010.93 1010.95 1010.93 1010.90 1010.86 1010.83 1010.85 1010.92 1011.05 1011.26 1011.54 1011.86 1012.22 1012.59 1012.94 1013.27 1013.56 1013.81 1014.00 1014.16 1014.29 1014.40 1014.50 1014.59 1014.70 1014.80 1014.91 1015.02
1010.63 1010.51 1010.41 1010.36 1010.36 1010.41 1010.51 1010.64 1010.78 1010.91 1011.01 1011.08 1011.11 1011.11 1011.10 1011.09 1011.10 1011.16 1011.27 1011.45 1011.69 1011.99 1012.33 1012.68 1013.03 1013.36 1013.65 1013.90 1014.10 1014.26 1014.38 1014.47 1014.54 1014.60 1014.65 1014.70 1014.75 1014.80
1010.43 1010.34 1010.27 1010.24 1010.25 1010.31 1010.42 1010.57 1010.74 1010.91 1011.06 1011.17 1011.25 1011.30 1011.32 1011.33 1011.36 1011.41 1011.51 1011.67 1011.88 1012.14 1012.45 1012.78 1013.11 1013.43 1013.72 1013.98 1014.19 1014.36 1014.49 1014.58 1014.64 1014.67 1014.69 1014.69 1014.69 1014.68
1010.09 1010.06 1010.03 1010.02 1010.06 1010.14 1010.27 1010.43 1010.63 1010.82 1011.01 1011.17 1011.29 1011.38 1011.44 1011.49 1011.54 1011.60 1011.70 1011.84 1012.03 1012.26 1012.53 1012.82 1013.13 1013.43 1013.72 1013.98 1014.20 1014.39 1014.53 1014.64 1014.71 1014.74 1014.74 1014.72 1014.69 1014.64
1009.58 1009.60 1009.62 1009.66 1009.74 1009.85 1010.00 1010.19 1010.40 1010.62 1010.83 1011.02 1011.19 1011.32 1011.42 1011.51 1011.59 1011.68 1011.78 1011.92 1012.09 1012.29 1012.53 1012.79 1013.06 1013.33 1013.61 1013.86 1014.10 1014.31 1014.48 1014.61 1014.71 1014.76 1014.78 1014.76 1014.71 1014.64
1008.86 1008.94 1009.03 1009.13 1009.26 1009.42 1009.60 1009.81 1010.04 1010.28 1010.51 1010.73 1010.92 1011.09 1011.24 1011.37 1011.49 1011.62 1011.75 1011.89 1012.05 1012.24 1012.44 1012.66 1012.90 1013.14 1013.39 1013.64 1013.88 1014.11 1014.31 1014.48 1014.62 1014.71 1014.75 1014.75 1014.71 1014.63
1007.96 1008.10 1008.26 1008.44 1008.64 1008.85 1009.08 1009.33 1009.58 1009.83 1010.08 1010.31 1010.53 1010.73 1010.92 1011.09 1011.26 1011.42 1011.58 1011.75 1011.93 1012.10 1012.29 1012.48 1012.69 1012.90 1013.12 1013.36 1013.60 1013.83 1014.06 1014.27 1014.44 1014.58 1014.66 1014.68 1014.66 1014.59
1006.94 1007.14 1007.37 1007.63 1007.90 1008.19 1008.47 1008.76 1009.04 1009.31 1009.57 1009.81 1010.04 1010.27 1010.49 1010.70 1010.91 1011.12 1011.33 1011.54 1011.74 1011.93 1012.11 1012.29 1012.47 1012.66 1012.86 1013.08 1013.30 1013.54 1013.79 1014.02 1014.22 1014.39 1014.50 1014.55 1014.55 1014.49
1005.89 1006.13 1006.42 1006.75 1007.10 1007.46 1007.81 1008.15 1008.46 1008.76 1009.03 1009.28 1009.52 1009.76 1010.00 1010.25 1010.51 1010.77 1011.03 1011.29 1011.53 1011.75 1011.95 1012.14 1012.31 1012.49 1012.67 1012.86 1013.08 1013.31 1013.54 1013.78 1013.99 1014.17 1014.31 1014.38 1014.38 1014.32
1004.87 1005.13 1005.46 1005.86 1006.28 1006.71 1007.13 1007.52 1007.87 1008.19 1008.47 1008.74 1008.99 1009.24 1009.50 1009.78 1010.08 1010.39 1010.71 1011.02 1011.32 1011.59 1011.83 1012.04 1012.23 1012.40 1012.58 1012.75 1012.95 1013.15 1013.37 1013.59 1013.79 1013.97 1014.10 1014.16 1014.17 1014.11
1003.92 1004.17 1004.53 1004.96 1005.44 1005.93 1006.41 1006.85 1007.25 1007.60 1007.91 1008.19 1008.45 1008.71 1008.99 1009.30 1009.64 1010.00 1010.38 1010.75 1011.12 1011.45 1011.74 1012.00 1012.22 1012.41 1012.58 1012.74 1012.92 1013.09 1013.28 1013.46 1013.64 1013.78 1013.88 1013.94 1013.93 1013.86
1003.05 1003.27 1003.61 1004.06 1004.56 1005.10 1005.63 1006.13 1006.57 1006.96 1007.30 1007.61 1007.89 1008.17 1008.47 1008.81 1009.19 1009.60 1010.03 1010.47 1010.90 1011.30 1011.66 1011.97 1012.23 1012.45 1012.63 1012.80 1012.95 1013.09 1013.24 1013.38 1013.50 1013.60 1013.67 1013.70 1013.67 1013.60
1002.23 1002.38 1002.68 1003.10 1003.62 1004.18 1004.75 1005.30 1005.79 1006.23 1006.62 1006.96 1007.28 1007.59 1007.93 1008.30 1008.72 1009.17 1009.66 1010.16 1010.65 1011.12 1011.54 1011.91 1012.22 1012.47 1012.67 1012.84 1012.97 1013.09 1013.20 1013.29 1013.37 1013.43 1013.46 1013.45 1013.41 1013.34
1001.40 1001.46 1001.69 1002.08 1002.57 1003.14 1003.74 1004.33 1004.88 1005.38 1005.83 1006.22 1006.59 1006.96 1007.34 1007.75 1008.21 1008.71 1009.25 1009.80 1010.35 1010.87 1011.35 1011.77 1012.13 1012.41 1012.64 1012.81 1012.94 1013.04 1013.12 1013.17 1013.21 1013.23 1013.23 1013.21 1013.16 1013.09
1000.54 1000.50 1000.65 1000.97 1001.43 1001.99 1002.61 1003.23 1003.84 1004.41 1004.92 1005.40 1005.84 1006.27 1006.70 1007.17 1007.67 1008.21 1008.79 1009.38 1009.97 1010.54 1011.06 1011.52 1011.92 1012.24 1012.49 1012.68 1012.81 1012.91 1012.96 1013.00 1013.01 1013.01 1012.99 1012.96 1012.92 1012.87
999.66 999.51 999.57 999.82 1000.24 1000.78 1001.40 1002.06 1002.72 1003.35 1003.95 1004.50 1005.03 1005.53 1006.04 1006.56 1007.11 1007.69 1008.30 1008.92 1009.54 1010.13 1010.68 1011.17 1011.60 1011.94 1012.22 1012.43 1012.57 1012.67 1012.73 1012.76 1012.77 1012.76 1012.74 1012.72 1012.69 1012.65
998.79 998.56 998.53 998.71 999.08 999.59 1000.21 1000.89 1001.59 1002.29 1002.96 1003.60 1004.21 1004.80 1005.38 1005.96 1006.56 1007.17 1007.80 1008.44 1009.07 1009.68 1010.24 1010.75 1011.19 1011.56 1011.85 1012.08 1012.25 1012.36 1012.43 1012.48 1012.49 1012.50 1012.49 1012.47 1012.45 1012.44
998.02 997.71 997.62 997.74 998.05 998.53 999.13 999.82 1000.56 1001.30 1002.04 1002.75 1003.44 1004.10 1004.74 1005.38 1006.02 1006.67 1007.32 1007.97 1008.60 1009.21 1009.78 1010.29 1010.74 1011.13 1011.44 1011.69 1011.88 1012.01 1012.11 1012.17 1012.20 1012.22 1012.22 1012.22 1012.20 1012.19
997.39 997.04 996.90 996.97 997.23 997.67 998.26 998.94 999.69 1000.46 1001.24 1002.00 1002.74 1003.45 1004.15 1004.84 1005.51 1006.19 1006.86 1007.51 1008.15 1008.76 1009.33 1009.84 1010.30 1010.69 1011.02 1011.29 1011.50 1011.66 1011.78 1011.86 1011.91 1011.94 1011.95 1011.94 1011.92 1011.89
996.92 996.56 996.40 996.43 996.66 997.07 997.62 998.28 999.01 999.78 1000.57 1001.36 1002.13 1002.88 1003.61 1004.33 1005.04 1005.73 1006.42 1007.08 1007.73 1008.34 1008.91 1009.43 1009.89 1010.30 1010.64 1010.93 1011.16 1011.34 1011.47 1011.57 1011.62 1011.65 1011.65 1011.62 1011.57 1011.51
996.58 996.24 996.07 996.10 996.30 996.68 997.19 997.82 998.52 999.27 1000.04 1000.82 1001.59 1002.36 1003.11 1003.85 1004.58 1005.29 1006.00 1006.68 1007.34 1007.96 1008.54 1009.07 1009.55 1009.96 1010.32 1010.61 1010.85 1011.04 1011.18 1011.28 1011.33 1011.34 1011.31 1011.25 1011.15 1011.03
Thickness
5677 5677 5677 5678 5679 5681 5682 5682 5680 5680 5683 5688 5691 5695 5698 5700 5701 5705 5708 5708 5710 5712 5715 5717 5719 5721 5722 5723 5724 5725 5726 5727 5729 5729 5730 5731 5731 5731
5674 5674 5674 5677 5677 5678 5679 5681 5681 5680 5681 5685 5687 5691 5693 5697 5697 5700 5703 5704 5706 5708 5710 5712 5715 5717 5718 5719 5720 5721 5722 5723 5724 5725 5726 5727 5727 5728
5676 5675 5674 5674 5675 5676 5677 5678 5679 5679 5678 5681 5684 5687 5689 5691 5694 5696 5699 5701 5704 5704 5705 5707 5709 5711 5713 5714 5715 5716 5717 5718 5719 5720 5721 5722 5723 5723
5675 5674 5674 5674 5673 5675 5675 5676 5676 5677 5677 5676 5679 5682 5684 5686 5688 5691 5694 5697 5699 5699 5700 5702 5704 5706 5707 5709 5710 5711 5712 5713 5714 5715 5716 5717 5718 5718
5674 5674 5674 5674 5673 5674 5673 5674 5674 5675 5674 5674 5675 5675 5678 5682 5683 5685 5689 5691 5694 5695 5695 5697 5698 5700 5701 5703 5704 5706 5707 5708 5709 5710 5710 5711 5712 5712
5675 5673 5673 5673 5672 5672 5672 5672 5672 5671 5671 5671 5671 5672 5673 5676 5678 5679 5682 5685 5687 5690 5690 5692 5693 5694 5695 5697 5698 5699 5701 5702 5703 5703 5704 5705 5705 5706
5674 5673 5672 5670 5669 5669 5670 5671 5670 5669 5668 5668 5668 5668 5669 5670 5672 5674 5676 5678 5681 5683 5685 5687 5689 5691 5691 5691 5692 5693 5694 5695 5696 5697 5697 5698 5699 5699
5673 5672 5672 5669 5666 5664 5664 5664 5664 5666 5666 5665 5665 5666 5667 5668 5668 5669 5670 5672 5673 5676 5678 5680 5683 5685 5687 5687 5686 5687 5687 5688 5689 5690 5690 5691 5692 5693
5672 5671 5670 5670 5666 5666 5663 5660 5659 5659 5659 5663 5663 5664 5664 5665 5664 5664 5665 5666 5667 5669 5671 5673 5676 5678 5679 5679 5678 5679 5680 5681 5682 5682 5683 5684 5685 5686
5669 5669 5668 5668 5666 5665 5664 5662 5661 5659 5658 5658 5660 5661 5660 5660 5661 5661 5661 5660 5662 5662 5664 5665 5669 5671 5672 5672 5670 5672 5673 5673 5674 5675 5676 5677 5677 5678
5665 5665 5665 5665 5661 5658 5659 5659 5657 5656 5653 5652 5652 5652 5651 5651 5653 5654 5654 5654 5655 5657 5657 5658 5660 5662 5664 5665 5664 5664 5665 5665 5666 5667 5668 5669 5670 5671
5661 5661 5657 5658 5656 5653 5655 5656 5654 5653 5652 5650 5648 5647 5647 5647 5645 5648 5649 5649 5650 5650 5650 5651 5652 5653 5655 5658 5659 5658 5658 5658 5659 5659 5660 5660 5661 5663
5656 5656 5656 5651 5649 5648 5649 5652 5650 5649 5649 5648 5646 5646 5645 5644 5643 5643 5643 5643 5644 5643 5643 5642 5644 5645 5647 5649 5651 5651 5651 5652 5652 5653 5653 5652 5652 5653
5650 5651 5651 5646 5643 5642 5643 5643 5642 5641 5644 5643 5642 5641 5641 5640 5638 5637 5636 5635 5635 5635 5634 5634 5635 5636 5638 5640 5643 5643 5643 5644 5644 5645 5645 5644 5644 5643
5642 5642 5641 5638 5636 5636 5635 5635 5635 5637 5638 5638 5638 5637 5636 5635 5632 5630 5629 5627 5627 5626 5626 5626 5627 5628 5630 5632 5634 5635 5635 5636 5636 5636 5636 5637 5637 5636
5630 5631 5629 5628 5628 5629 5629 5629 5631 5633 5634 5633 5633 5631 5629 5627 5626 5624 5623 5622 5621 5620 5619 5619 5619 5620 5622 5623 5625 5627 5628 5628 5628 5627 5627 5628 5628 5627
5624 5623 5624 5624 5624 5625 5626 5627 5626 5626 5626 5626 5626 5624 5622 5621 5620 5618 5617 5617 5617 5616 5614 5612 5613 5613 5613 5615 5617 5619 5620 5619 5619 5618 5617 5618 5619 5619
5612 5618 5621 5622 5623 5623 5623 5622 5622 5621 5622 5621 5620 5618 5617 5615 5614 5612 5611 5611 5612 5611 5609 5608 5607 5608 5609 5609 5606 5609 5610 5610 5609 5608 5607 5609 5611 5611
5605 5613 5617 5619 5620 5619 5619 5619 5618 5617 5616 5614 5613 5612 5611 5609 5608 5606 5606 5605 5605 5604 5602 5601 5601 5602 5605 5606 5601 5595 5598 5599 5599 5599 5599 5600 5601 5601
5601 5608 5612 5615 5615 5615 5614 5614 5613 5611 5609 5608 5607 5606 5605 5604 5602 5601 5600 5599 5598 5597 5595 5593 5593 5593 5594 5595 5594 5590 5585 5588 5589 5590 5590 5590 5590 5589
5597 5602 5606 5609 5610 5610 5609 5608 5606 5605 5603 5602 5601 5600 5599 5597 5596 5595 5594 5588 5589 5589 5588 5587 5583 5578 5580 5580 5582 5584 5582 5577 5576 5576 5577 5579 5581 5583
5591 5596 5600 5602 5603 5603 5603 5601 5600 5598 5597 5596 5595 5593 5592 5591 5590 5588 5587 5584 5583 5582 5580 5578 5573 5572 5573 5574 5576 5576 5575 5572 5569 5566 5564 5563 5566 5571
5584 5588 5592 5595 5596 5596 5596 5595 5594 5593 5592 5590 5589 5587 5585 5584 5582 5581 5579 5577 5576 5573 5571 5569 5567 5566 5565 5565 5565 5565 5565 5564 5563 5562 5561 5557 5554 5553